| time (UTC) | temp F | wind direction | speed knots | gust knots | rain 1hr in | rain 24hr in | rain mn in | humidity % | barometer mb |
| 20260901104106 | 69 | 122 | 0.0 | 0.0 | 0.01 | 0.51 | 0.46 | 96 | 1017.0 |
| 20260901103604 | 69 | 122 | 0.0 | 0.0 | 0.01 | 0.51 | 0.46 | 96 | 1017.1 |
| 20260901103104 | 69 | 122 | 0.0 | 0.0 | 0.00 | 0.50 | 0.45 | 96 | 1017.1 |
| 20260901102604 | 69 | 122 | 0.0 | 0.0 | 0.00 | 0.50 | 0.45 | 96 | 1017.1 |
| 20260901102105 | 69 | 122 | 0.0 | 0.0 | 0.00 | 0.50 | 0.45 | 96 | 1017.0 |
| 20260901101604 | 69 | 122 | 0.0 | 0.0 | 0.00 | 0.50 | 0.45 | 96 | 1016.9 |
| 20260901100605 | 69 | 122 | 0.0 | 0.0 | 0.00 | 0.50 | 0.45 | 96 | 1017.0 |
| 20260901100104 | 69 | 122 | 0.0 | 0.0 | 0.00 | 0.50 | 0.45 | 96 | 1016.9 |
| 20260901095605 | 69 | 122 | 0.0 | 0.0 | 0.00 | 0.50 | 0.45 | 96 | 1016.9 |
| 20260901095105 | 69 | 122 | 0.0 | 0.0 | 0.00 | 0.50 | 0.45 | 96 | 1016.8 |
| 20260901094604 | 69 | 122 | 0.0 | 0.0 | 0.00 | 0.50 | 0.45 | 96 | 1016.8 |
| 20260901094104 | 69 | 122 | 0.0 | 0.0 | 0.00 | 0.50 | 0.45 | 96 | 1016.8 |
| 20260901093604 | 69 | 122 | 0.0 | 0.0 | 0.00 | 0.50 | 0.45 | 96 | 1016.8 |
| 20260901093105 | 69 | 122 | 0.0 | 0.0 | 0.00 | 0.50 | 0.45 | 96 | 1017.0 |
| 20260901091604 | 69 | 122 | 0.0 | 0.0 | 0.00 | 0.50 | 0.45 | 96 | 1016.9 |
| 20260901091104 | 69 | 122 | 0.0 | 0.0 | 0.00 | 0.50 | 0.45 | 96 | 1016.9 |
| 20260901090606 | 69 | 122 | 0.0 | 0.0 | 0.00 | 0.50 | 0.45 | 96 | 1016.9 |
| 20260901090104 | 69 | 122 | 0.0 | 0.0 | 0.00 | 0.50 | 0.45 | 96 | 1017.0 |
| 20260901085604 | 69 | 122 | 0.0 | 0.0 | 0.00 | 0.50 | 0.45 | 96 | 1017.0 |
| 20260901085104 | 69 | 122 | 0.0 | 0.0 | 0.00 | 0.50 | 0.45 | 96 | 1017.0 |
| 20260901084604 | 69 | 122 | 0.0 | 0.0 | 0.00 | 0.50 | 0.45 | 96 | 1017.0 |
| 20260901084105 | 69 | 122 | 0.0 | 0.0 | 0.00 | 0.50 | 0.45 | 96 | 1017.0 |
| 20260901082604 | 69 | 122 | 0.0 | 0.0 | 0.00 | 0.50 | 0.45 | 96 | 1017.2 |
| 20260901082104 | 69 | 122 | 0.0 | 0.0 | 0.00 | 0.50 | 0.45 | 96 | 1017.3 |
| 20260901081106 | 69 | 122 | 0.0 | 0.0 | 0.00 | 0.50 | 0.45 | 96 | 1017.2 |
| 20260901080605 | 69 | 122 | 0.0 | 0.0 | 0.00 | 0.50 | 0.45 | 96 | 1017.3 |
| 20260901080104 | 69 | 122 | 0.0 | 0.0 | 0.00 | 0.50 | 0.45 | 96 | 1017.3 |
| 20260901075604 | 69 | 122 | 0.0 | 0.0 | 0.00 | 0.50 | 0.45 | 96 | 1017.3 |
| 20260901075105 | 69 | 122 | 0.0 | 0.0 | 0.00 | 0.50 | 0.45 | 96 | 1017.4 |
| 20260901074604 | 69 | 122 | 0.0 | 0.0 | 0.00 | 0.50 | 0.45 | 96 | 1017.5 |
| 20260901074104 | 69 | 122 | 0.0 | 0.0 | 0.00 | 0.50 | 0.45 | 96 | 1017.6 |
| 20260901073604 | 69 | 122 | 0.0 | 0.0 | 0.00 | 0.50 | 0.45 | 96 | 1017.7 |
| 20260901073104 | 69 | 122 | 0.0 | 0.0 | 0.01 | 0.50 | 0.45 | 96 | 1017.7 |
| 20260901072604 | 69 | 122 | 0.0 | 0.0 | 0.01 | 0.50 | 0.45 | 96 | 1017.7 |
| 20260901072105 | 69 | 122 | 0.0 | 0.0 | 0.01 | 0.50 | 0.45 | 96 | 1017.6 |
| 20260901071605 | 69 | 122 | 0.0 | 0.0 | 0.01 | 0.50 | 0.45 | 96 | 1017.6 |
| 20260901071104 | 69 | 122 | 0.0 | 0.0 | 0.01 | 0.50 | 0.45 | 96 | 1017.6 |
| 20260901070604 | 69 | 122 | 0.0 | 0.0 | 0.01 | 0.50 | 0.45 | 96 | 1017.6 |
| 20260901070105 | 69 | 122 | 0.0 | 0.0 | 0.01 | 0.50 | 0.45 | 96 | 1017.8 |
| 20260901065604 | 69 | 122 | 0.0 | 0.0 | 0.01 | 0.50 | 0.45 | 96 | 1017.8 |
| 20260901065105 | 69 | 122 | 0.0 | 0.0 | 0.02 | 0.50 | 0.45 | 96 | 1017.9 |
| 20260901064605 | 69 | 122 | 0.0 | 0.0 | 0.02 | 0.50 | 0.45 | 96 | 1018.0 |
| 20260901064105 | 69 | 122 | 0.0 | 0.0 | 0.03 | 0.50 | 0.45 | 96 | 1018.0 |
| 20260901063105 | 69 | 122 | 0.0 | 0.0 | 0.03 | 0.49 | 0.44 | 96 | 1018.0 |
| 20260901062604 | 69 | 122 | 0.0 | 0.9 | 0.05 | 0.49 | 0.44 | 96 | 1018.0 |
| 20260901061604 | 69 | 122 | 0.0 | 0.0 | 0.06 | 0.49 | 0.44 | 96 | 1018.1 |
| 20260901061104 | 69 | 122 | 0.0 | 0.0 | 0.07 | 0.49 | 0.44 | 95 | 1018.1 |
| 20260901060604 | 69 | 122 | 0.0 | 0.0 | 0.09 | 0.49 | 0.44 | 95 | 1018.2 |
| 20260901060104 | 69 | 122 | 0.0 | 0.0 | 0.12 | 0.49 | 0.44 | 95 | 1018.2 |
| 20260901055604 | 69 | 122 | 0.0 | 0.0 | 0.15 | 0.49 | 0.44 | 95 | 1018.3 |
| 20260901055104 | 69 | 122 | 0.0 | 0.9 | 0.16 | 0.48 | 0.43 | 95 | 1018.3 |
| 20260901054604 | 69 | 122 | 0.9 | 2.6 | 0.20 | 0.48 | 0.43 | 95 | 1018.2 |
| 20260901054105 | 69 | 121 | 0.0 | 2.6 | 0.23 | 0.47 | 0.42 | 95 | 1018.3 |
| 20260901053605 | 69 | 121 | 1.7 | 2.6 | 0.28 | 0.46 | 0.41 | 95 | 1018.4 |
| 20260901052608 | 69 | 261 | 0.9 | 2.6 | 0.28 | 0.44 | 0.39 | 95 | 1018.6 |
| 20260901052104 | 69 | 261 | 1.7 | 2.6 | 0.29 | 0.44 | 0.39 | 95 | 1018.5 |
| 20260901051104 | 69 | 256 | 0.0 | 1.7 | 0.30 | 0.42 | 0.37 | 95 | 1018.5 |
| 20260901050604 | 69 | 256 | 0.9 | 1.7 | 0.31 | 0.40 | 0.35 | 95 | 1018.5 |
| 20260901050105 | 69 | 256 | 0.0 | 0.9 | 0.31 | 0.37 | 0.32 | 95 | 1018.4 |
| 20260901045604 | 69 | 256 | 0.0 | 0.0 | 0.24 | 0.34 | 0.29 | 95 | 1018.4 |
| 20260901045104 | 69 | 256 | 0.0 | 1.7 | 0.22 | 0.32 | 0.27 | 95 | 1018.4 |
| 20260901044605 | 69 | 256 | 0.0 | 1.7 | 0.19 | 0.28 | 0.23 | 95 | 1018.5 |
| 20260901043604 | 69 | 256 | 0.0 | 0.0 | 0.10 | 0.18 | 0.13 | 95 | 1018.5 |
| 20260901043104 | 69 | 256 | 0.0 | 0.0 | 0.10 | 0.17 | 0.12 | 94 | 1018.5 |
| 20260901042604 | 70 | 256 | 0.0 | 0.9 | 0.10 | 0.16 | 0.11 | 94 | 1018.5 |
| 20260901042104 | 70 | 256 | 0.0 | 0.0 | 0.09 | 0.15 | 0.10 | 94 | 1018.6 |
| 20260901041604 | 70 | 256 | 0.0 | 0.0 | 0.08 | 0.14 | 0.09 | 94 | 1018.6 |
| 20260901041105 | 70 | 256 | 0.0 | 0.0 | 0.06 | 0.12 | 0.07 | 94 | 1018.7 |
| 20260901040604 | 70 | 256 | 0.0 | 0.0 | 0.03 | 0.09 | 0.04 | 94 | 1018.7 |
| 20260901040104 | 70 | 256 | 0.0 | 0.0 | 0.00 | 0.06 | 0.01 | 94 | 1018.7 |
| 20260901035104 | 70 | 256 | 0.0 | 0.0 | 0.05 | 0.05 | 0.05 | 94 | 1018.8 |
| 20260901034604 | 70 | 256 | 0.0 | 0.0 | 0.04 | 0.04 | 0.04 | 94 | 1018.8 |
| 20260901034105 | 70 | 256 | 0.0 | 0.0 | 0.04 | 0.04 | 0.04 | 94 | 1018.8 |
| 20260901033604 | 70 | 256 | 0.0 | 0.0 | 0.03 | 0.03 | 0.03 | 94 | 1018.8 |
| 20260901033104 | 70 | 256 | 0.0 | 0.0 | 0.02 | 0.02 | 0.02 | 94 | 1018.8 |
| 20260901032604 | 70 | 256 | 0.0 | 0.0 | 0.01 | 0.01 | 0.01 | 94 | 1018.8 |
| 20260901032104 | 70 | 256 | 0.0 | 0.0 | 0.01 | 0.01 | 0.01 | 94 | 1018.9 |
| 20260901031604 | 70 | 256 | 0.0 | 0.0 | 0.01 | 0.01 | 0.01 | 94 | 1018.9 |
| 20260901031104 | 70 | 256 | 0.0 | 0.0 | 0.01 | 0.01 | 0.01 | 93 | 1018.9 |
| 20260901030605 | 70 | 256 | 0.0 | 0.0 | 0.01 | 0.01 | 0.01 | 93 | 1018.8 |
| 20260901030104 | 70 | 256 | 0.0 | 0.0 | 0.01 | 0.01 | 0.01 | 93 | 1018.9 |
| 20260901025604 | 70 | 256 | 0.9 | 1.7 | 0.00 | 0.00 | 0.00 | 93 | 1018.8 |
| 20260901025104 | 70 | 256 | 0.0 | 0.0 | 0.00 | 0.00 | 0.00 | 93 | 1018.9 |
| 20260901024604 | 70 | 256 | 0.0 | 0.0 | 0.00 | 0.00 | 0.00 | 93 | 1019.1 |
| 20260901024104 | 70 | 256 | 0.0 | 0.9 | 0.00 | 0.00 | 0.00 | 93 | 1019.0 |
| 20260901023604 | 70 | 256 | 0.0 | 0.9 | 0.00 | 0.00 | 0.00 | 93 | 1019.0 |
| 20260901022105 | 70 | 256 | 0.0 | 0.0 | 0.00 | 0.00 | 0.00 | 93 | 1019.2 |
| 20260901021604 | 70 | 256 | 0.0 | 0.0 | 0.00 | 0.00 | 0.00 | 93 | 1019.2 |
| 20260901021104 | 70 | 256 | 0.0 | 0.0 | 0.00 | 0.00 | 0.00 | 93 | 1019.2 |
| 20260901020605 | 70 | 256 | 0.0 | 0.0 | 0.00 | 0.00 | 0.00 | 93 | 1019.2 |
| 20260901020105 | 70 | 256 | 0.0 | 0.0 | 0.00 | 0.00 | 0.00 | 93 | 1019.2 |
| 20260901015604 | 70 | 256 | 0.0 | 0.0 | 0.00 | 0.00 | 0.00 | 93 | 1019.1 |
| 20260901015104 | 70 | 256 | 0.0 | 0.0 | 0.00 | 0.00 | 0.00 | 93 | 1019.2 |
| 20260901014604 | 70 | 256 | 0.0 | 0.0 | 0.00 | 0.01 | 0.00 | 92 | 1019.1 |
| 20260901014105 | 70 | 256 | 0.0 | 0.0 | 0.00 | 0.01 | 0.00 | 92 | 1019.2 |
| 20260901013604 | 70 | 256 | 0.0 | 0.0 | 0.00 | 0.01 | 0.00 | 92 | 1019.1 |
| 20260901013104 | 70 | 256 | 0.0 | 0.0 | 0.00 | 0.02 | 0.00 | 92 | 1019.1 |
| 20260901012605 | 70 | 256 | 0.0 | 0.0 | 0.00 | 0.02 | 0.00 | 92 | 1019.2 |
| 20260901012104 | 70 | 256 | 0.0 | 0.0 | 0.00 | 0.02 | 0.00 | 92 | 1019.2 |
| 20260901011605 | 70 | 256 | 0.0 | 0.0 | 0.00 | 0.02 | 0.00 | 92 | 1019.3 |
| 20260901011104 | 71 | 256 | 0.0 | 0.0 | 0.00 | 0.02 | 0.00 | 92 | 1019.3 |
| 20260901010604 | 71 | 256 | 0.0 | 0.0 | 0.00 | 0.02 | 0.00 | 92 | 1019.3 |
| 20260901010105 | 71 | 256 | 0.0 | 0.0 | 0.00 | 0.02 | 0.00 | 92 | 1019.2 |
| 20260901005604 | 71 | 256 | 0.0 | 0.0 | 0.00 | 0.02 | 0.00 | 92 | 1019.3 |
| 20260901005104 | 71 | 256 | 0.0 | 0.0 | 0.00 | 0.02 | 0.00 | 91 | 1019.2 |
| 20260901004604 | 71 | 256 | 0.0 | 0.0 | 0.00 | 0.02 | 0.00 | 91 | 1019.3 |
| 20260901003605 | 71 | 256 | 0.0 | 0.0 | 0.00 | 0.02 | 0.00 | 91 | 1019.4 |
| 20260901003106 | 71 | 256 | 0.0 | 1.7 | 0.00 | 0.02 | 0.00 | 91 | 1019.4 |
| 20260901002604 | 71 | 256 | 0.0 | 0.0 | 0.00 | 0.02 | 0.00 | 90 | 1019.3 |
| 20260901001604 | 71 | 256 | 0.0 | 2.6 | 0.00 | 0.03 | 0.00 | 90 | 1019.3 |
| 20260901000605 | 71 | 256 | 0.9 | 2.6 | 0.00 | 0.03 | 0.00 | 89 | 1019.2 |
| 20260831235604 | 72 | 256 | 0.0 | 0.0 | 0.00 | 0.03 | 0.00 | 89 | 1019.3 |
| 20260831234604 | 72 | 256 | 0.0 | 0.0 | 0.00 | 0.03 | 0.00 | 89 | 1019.2 |
| 20260831234104 | 72 | 256 | 0.0 | 0.0 | 0.00 | 0.03 | 0.00 | 89 | 1019.2 |
| 20260831233104 | 72 | 256 | 0.0 | 0.0 | 0.00 | 0.03 | 0.00 | 88 | 1019.1 |
| 20260831232104 | 72 | 256 | 0.0 | 0.0 | 0.00 | 0.03 | 0.00 | 88 | 1019.2 |
| 20260831231104 | 72 | 256 | 0.0 | 0.0 | 0.00 | 0.03 | 0.00 | 87 | 1019.3 |
| 20260831230604 | 73 | 256 | 0.0 | 0.0 | 0.00 | 0.03 | 0.00 | 88 | 1019.4 |
| 20260831230104 | 73 | 256 | 0.0 | 0.0 | 0.00 | 0.03 | 0.00 | 88 | 1019.5 |
| 20260831225604 | 73 | 256 | 0.0 | 0.0 | 0.00 | 0.03 | 0.00 | 87 | 1019.5 |
| 20260831225105 | 73 | 256 | 0.0 | 0.0 | 0.00 | 0.03 | 0.00 | 87 | 1019.6 |
| 20260831224628 | 73 | 256 | 0.0 | 0.0 | 0.00 | 0.03 | 0.00 | 87 | 1019.5 |
| 20260831223604 | 73 | 256 | 0.0 | 0.0 | 0.00 | 0.03 | 0.00 | 87 | 1019.6 |
| 20260831223104 | 73 | 256 | 1.7 | 2.6 | 0.00 | 0.03 | 0.00 | 86 | 1019.6 |
| 20260831221604 | 73 | 256 | 0.9 | 2.6 | 0.00 | 0.03 | 0.00 | 87 | 1019.6 |
| 20260831221105 | 73 | 256 | 0.0 | 0.0 | 0.00 | 0.03 | 0.00 | 87 | 1019.5 |
| 20260831220604 | 73 | 256 | 0.0 | 0.0 | 0.00 | 0.03 | 0.00 | 87 | 1019.5 |
| 20260831215605 | 73 | 256 | 1.7 | 2.6 | 0.00 | 0.03 | 0.00 | 87 | 1019.7 |
| 20260831215104 | 73 | 256 | 0.9 | 2.6 | 0.00 | 0.03 | 0.00 | 87 | 1019.8 |
| 20260831214104 | 73 | 256 | 0.0 | 1.7 | 0.00 | 0.03 | 0.00 | 86 | 1019.7 |
| 20260831213604 | 73 | 256 | 1.7 | 2.6 | 0.00 | 0.03 | 0.00 | 86 | 1019.6 |
| 20260831213104 | 73 | 256 | 0.9 | 2.6 | 0.00 | 0.03 | 0.00 | 86 | 1019.7 |
| 20260831212604 | 73 | 255 | 1.7 | 5.2 | 0.00 | 0.03 | 0.00 | 86 | 1019.7 |
| 20260831211105 | 74 | 239 | 0.9 | 5.2 | 0.00 | 0.03 | 0.00 | 83 | 1019.7 |
| 20260831210105 | 74 | 225 | 0.0 | 0.0 | 0.00 | 0.03 | 0.00 | 81 | 1019.7 |
| 20260831205604 | 74 | 225 | 0.0 | 0.9 | 0.00 | 0.03 | 0.00 | 80 | 1019.6 |
| 20260831205104 | 74 | 225 | 0.0 | 0.0 | 0.00 | 0.03 | 0.00 | 79 | 1019.6 |
| 20260831204604 | 75 | 225 | 0.0 | 0.9 | 0.00 | 0.03 | 0.00 | 80 | 1019.6 |
| 20260831203604 | 75 | 225 | 0.0 | 1.7 | 0.00 | 0.03 | 0.00 | 79 | 1019.6 |
| 20260831203104 | 76 | 160 | 0.0 | 0.0 | 0.00 | 0.03 | 0.00 | 80 | 1019.7 |
| 20260831202604 | 76 | 160 | 0.0 | 2.6 | 0.00 | 0.03 | 0.00 | 79 | 1019.5 |
| 20260831202104 | 76 | 160 | 1.7 | 2.6 | 0.00 | 0.03 | 0.00 | 78 | 1019.5 |
| 20260831201604 | 76 | 252 | 0.0 | 0.0 | 0.00 | 0.03 | 0.00 | 78 | 1019.4 |
| 20260831201104 | 76 | 252 | 0.0 | 0.0 | 0.00 | 0.03 | 0.00 | 79 | 1019.4 |
| 20260831200604 | 76 | 252 | 0.0 | 0.0 | 0.00 | 0.03 | 0.00 | 78 | 1019.4 |
| 20260831195604 | 76 | 252 | 0.0 | 0.0 | 0.00 | 0.03 | 0.00 | 78 | 1019.6 |
| 20260831195105 | 76 | 252 | 0.9 | 1.7 | 0.00 | 0.03 | 0.00 | 79 | 1019.8 |
| 20260831193605 | 76 | 252 | 0.0 | 0.0 | 0.00 | 0.03 | 0.00 | 76 | 1020.1 |
| 20260831193103 | 76 | 252 | 0.0 | 0.0 | 0.00 | 0.03 | 0.00 | 76 | 1020.0 |
| 20260831192604 | 76 | 252 | 0.0 | 0.0 | 0.00 | 0.03 | 0.00 | 78 | 1020.1 |
| 20260831192104 | 75 | 252 | 0.0 | 1.7 | 0.00 | 0.03 | 0.00 | 78 | 1020.2 |
| 20260831191604 | 76 | 252 | 0.0 | 1.7 | 0.00 | 0.03 | 0.00 | 77 | 1020.3 |
| 20260831191104 | 76 | 252 | 0.0 | 1.7 | 0.00 | 0.03 | 0.00 | 77 | 1020.4 |
| 20260831190104 | 76 | 252 | 0.9 | 2.6 | 0.00 | 0.03 | 0.00 | 76 | 1020.4 |
| 20260831185604 | 76 | 252 | 0.0 | 1.7 | 0.00 | 0.03 | 0.00 | 75 | 1020.5 |
| 20260831185104 | 76 | 252 | 0.0 | 1.7 | 0.00 | 0.03 | 0.00 | 76 | 1020.6 |
| 20260831184605 | 76 | 252 | 0.9 | 2.6 | 0.00 | 0.03 | 0.00 | 76 | 1020.6 |
| 20260831184105 | 77 | 252 | 0.9 | 1.7 | 0.00 | 0.03 | 0.00 | 76 | 1020.6 |
| 20260831183104 | 77 | 250 | 0.0 | 2.6 | 0.00 | 0.03 | 0.00 | 76 | 1020.7 |
| 20260831182604 | 77 | 250 | 0.0 | 0.9 | 0.00 | 0.03 | 0.00 | 75 | 1020.7 |
| 20260831182105 | 77 | 250 | 0.0 | 0.9 | 0.00 | 0.03 | 0.00 | 74 | 1020.7 |
| 20260831181604 | 77 | 250 | 0.0 | 0.0 | 0.00 | 0.03 | 0.00 | 74 | 1020.8 |
| 20260831181104 | 77 | 250 | 0.0 | 1.7 | 0.00 | 0.03 | 0.00 | 73 | 1020.9 |
| 20260831180605 | 77 | 177 | 0.0 | 0.9 | 0.00 | 0.03 | 0.00 | 75 | 1020.8 |
| 20260831180105 | 76 | 177 | 0.0 | 0.9 | 0.00 | 0.03 | 0.00 | 75 | 1020.8 |
| 20260831175605 | 77 | 177 | 0.9 | 2.6 | 0.00 | 0.03 | 0.00 | 77 | 1021.0 |
| 20260831174604 | 77 | 151 | 0.0 | 1.7 | 0.00 | 0.03 | 0.00 | 76 | 1021.0 |
| 20260831174104 | 76 | 151 | 0.0 | 1.7 | 0.00 | 0.03 | 0.00 | 77 | 1021.1 |
| 20260831173605 | 76 | 151 | 0.0 | 1.7 | 0.00 | 0.03 | 0.00 | 76 | 1021.2 |
| 20260831172604 | 76 | 151 | 0.0 | 2.6 | 0.00 | 0.03 | 0.00 | 76 | 1021.2 |
| 20260831172105 | 76 | 151 | 0.0 | 1.7 | 0.00 | 0.03 | 0.00 | 77 | 1021.3 |
| 20260831171604 | 76 | 151 | 0.0 | 0.0 | 0.00 | 0.03 | 0.00 | 76 | 1021.3 |
| 20260831171105 | 76 | 151 | 0.0 | 0.0 | 0.00 | 0.03 | 0.00 | 77 | 1021.3 |
| 20260831170104 | 76 | 151 | 0.0 | 0.0 | 0.00 | 0.03 | 0.00 | 75 | 1021.2 |
| 20260831165605 | 76 | 151 | 0.0 | 1.7 | 0.00 | 0.03 | 0.00 | 76 | 1021.2 |
| 20260831165104 | 76 | 151 | 0.0 | 1.7 | 0.00 | 0.03 | 0.00 | 77 | 1021.2 |
| 20260831164605 | 76 | 151 | 0.9 | 2.6 | 0.00 | 0.03 | 0.00 | 77 | 1021.2 |
| 20260831164105 | 76 | 151 | 0.0 | 0.0 | 0.00 | 0.03 | 0.00 | 76 | 1021.2 |
| 20260831163605 | 76 | 151 | 0.9 | 2.6 | 0.00 | 0.03 | 0.00 | 76 | 1021.1 |
| 20260831163105 | 76 | 151 | 0.9 | 1.7 | 0.00 | 0.03 | 0.00 | 76 | 1021.2 |
| 20260831162604 | 76 | 151 | 1.7 | 4.3 | 0.00 | 0.03 | 0.00 | 76 | 1021.2 |
| 20260831162105 | 76 | 176 | 1.7 | 2.6 | 0.00 | 0.03 | 0.00 | 76 | 1021.3 |
| 20260831161605 | 76 | 182 | 1.7 | 2.6 | 0.00 | 0.03 | 0.00 | 77 | 1021.3 |
| 20260831161104 | 76 | 182 | 0.9 | 7.0 | 0.00 | 0.03 | 0.00 | 75 | 1021.4 |
| 20260831160604 | 77 | 207 | 0.9 | 2.6 | 0.00 | 0.03 | 0.00 | 74 | 1021.5 |
| 20260831155604 | 76 | 133 | 1.7 | 7.0 | 0.00 | 0.03 | 0.00 | 75 | 1021.5 |
| 20260831154605 | 77 | 357 | 0.0 | 1.7 | 0.00 | 0.03 | 0.00 | 76 | 1021.6 |
| 20260831154105 | 77 | 357 | 0.0 | 2.6 | 0.00 | 0.03 | 0.00 | 76 | 1021.6 |
| 20260831153604 | 76 | 316 | 0.9 | 2.6 | 0.00 | 0.03 | 0.00 | 76 | 1021.7 |
| 20260831153104 | 76 | 329 | 0.9 | 2.6 | 0.00 | 0.03 | 0.00 | 77 | 1021.7 |
| 20260831152604 | 76 | 64 | 1.7 | 4.3 | 0.00 | 0.03 | 0.00 | 77 | 1021.8 |
| 20260831151604 | 75 | 66 | 1.7 | 5.2 | 0.00 | 0.03 | 0.00 | 77 | 1021.7 |
| 20260831151104 | 75 | 110 | 0.9 | 2.6 | 0.00 | 0.03 | 0.00 | 78 | 1021.7 |
| 20260831150605 | 74 | 92 | 2.6 | 5.2 | 0.00 | 0.03 | 0.00 | 79 | 1021.7 |
| 20260831150104 | 74 | 131 | 1.7 | 5.2 | 0.00 | 0.03 | 0.00 | 80 | 1021.7 |
| 20260831145605 | 74 | 114 | 2.6 | 6.1 | 0.00 | 0.03 | 0.00 | 81 | 1021.7 |
| 20260831145104 | 73 | 35 | 1.7 | 4.3 | 0.00 | 0.03 | 0.00 | 81 | 1021.8 |
| 20260831144604 | 73 | 55 | 1.7 | 7.0 | 0.00 | 0.03 | 0.00 | 81 | 1021.8 |
| 20260831144105 | 73 | 89 | 1.7 | 2.6 | 0.00 | 0.03 | 0.00 | 81 | 1021.8 |
| 20260831143604 | 73 | 54 | 0.9 | 4.3 | 0.00 | 0.03 | 0.00 | 82 | 1021.9 |
| 20260831143104 | 73 | 11 | 2.6 | 5.2 | 0.00 | 0.03 | 0.00 | 81 | 1021.9 |
| 20260831142604 | 73 | 59 | 0.9 | 4.3 | 0.00 | 0.03 | 0.00 | 82 | 1021.9 |
| 20260831142105 | 73 | 106 | 0.9 | 2.6 | 0.00 | 0.03 | 0.00 | 82 | 1022.0 |
| 20260831141603 | 72 | 34 | 1.7 | 2.6 | 0.00 | 0.03 | 0.00 | 82 | 1022.0 |
| 20260831141104 | 72 | 100 | 2.6 | 6.1 | 0.00 | 0.03 | 0.00 | 83 | 1022.2 |
| 20260831140604 | 72 | 32 | 2.6 | 7.0 | 0.00 | 0.03 | 0.00 | 82 | 1022.1 |
| 20260831140104 | 72 | 81 | 1.7 | 2.6 | 0.00 | 0.03 | 0.00 | 84 | 1021.8 |
| 20260831135604 | 72 | 13 | 2.6 | 6.1 | 0.00 | 0.03 | 0.00 | 84 | 1021.7 |
| 20260831135104 | 72 | 61 | 1.7 | 4.3 | 0.00 | 0.03 | 0.00 | 85 | 1021.7 |
| 20260831134105 | 71 | 61 | 1.7 | 7.0 | 0.00 | 0.03 | 0.00 | 86 | 1021.8 |
| 20260831133104 | 70 | 97 | 1.7 | 5.2 | 0.00 | 0.03 | 0.00 | 88 | 1021.8 |
| 20260831132604 | 70 | 67 | 1.7 | 4.3 | 0.00 | 0.03 | 0.00 | 88 | 1021.8 |
| 20260831132105 | 70 | 25 | 1.7 | 5.2 | 0.00 | 0.03 | 0.00 | 89 | 1021.8 |
| 20260831131604 | 70 | 113 | 0.9 | 5.2 | 0.00 | 0.03 | 0.00 | 90 | 1021.7 |
| 20260831131104 | 69 | 113 | 0.9 | 5.2 | 0.00 | 0.03 | 0.00 | 90 | 1021.7 |
| 20260831130603 | 69 | 109 | 1.7 | 5.2 | 0.00 | 0.03 | 0.00 | 92 | 1021.9 |
| 20260831130104 | 69 | 125 | 2.6 | 7.0 | 0.00 | 0.03 | 0.00 | 92 | 1021.9 |
| 20260831125605 | 69 | 106 | 1.7 | 4.3 | 0.00 | 0.03 | 0.00 | 94 | 1021.9 |
| 20260831125104 | 69 | 17 | 0.9 | 4.3 | 0.00 | 0.03 | 0.00 | 95 | 1021.9 |
| 20260831124604 | 68 | 20 | 0.0 | 0.9 | 0.00 | 0.03 | 0.00 | 95 | 1021.8 |
| 20260831124104 | 68 | 20 | 0.0 | 0.9 | 0.00 | 0.03 | 0.00 | 95 | 1021.8 |
| 20260831123603 | 68 | 20 | 0.0 | 2.6 | 0.00 | 0.03 | 0.00 | 95 | 1021.6 |
| 20260831123104 | 68 | 255 | 0.0 | 0.9 | 0.00 | 0.03 | 0.00 | 95 | 1021.5 |
| 20260831122604 | 68 | 244 | 0.9 | 2.6 | 0.00 | 0.03 | 0.00 | 96 | 1021.6 |
| 20260831121104 | 67 | 258 | 0.0 | 0.0 | 0.00 | 0.03 | 0.00 | 96 | 1021.9 |
| 20260831120604 | 67 | 258 | 0.0 | 0.0 | 0.00 | 0.03 | 0.00 | 96 | 1021.9 |
| 20260831120104 | 67 | 258 | 0.0 | 0.0 | 0.00 | 0.03 | 0.00 | 96 | 1021.8 |
| 20260831115604 | 66 | 258 | 0.0 | 0.0 | 0.00 | 0.03 | 0.00 | 96 | 1021.7 |
| 20260831115105 | 66 | 258 | 0.0 | 0.0 | 0.00 | 0.03 | 0.00 | 96 | 1021.6 |
| 20260831114604 | 66 | 258 | 0.0 | 0.0 | 0.00 | 0.03 | 0.00 | 96 | 1021.8 |
| 20260831114103 | 65 | 258 | 0.0 | 0.0 | 0.00 | 0.03 | 0.00 | 96 | 1021.8 |
| 20260831113605 | 65 | 258 | 0.0 | 0.0 | 0.00 | 0.03 | 0.00 | 96 | 1021.7 |
| 20260831113103 | 65 | 258 | 0.0 | 0.0 | 0.00 | 0.03 | 0.00 | 96 | 1021.7 |
| 20260831112604 | 65 | 258 | 0.0 | 0.0 | 0.00 | 0.03 | 0.00 | 96 | 1021.5 |
| 20260831112104 | 64 | 258 | 0.0 | 0.0 | 0.00 | 0.03 | 0.00 | 96 | 1021.3 |
| 20260831111604 | 64 | 258 | 0.0 | 0.0 | 0.00 | 0.03 | 0.00 | 96 | 1021.3 |
| 20260831111105 | 64 | 258 | 0.0 | 0.0 | 0.00 | 0.03 | 0.00 | 96 | 1021.3 |
| 20260831110605 | 64 | 258 | 0.0 | 0.0 | 0.00 | 0.03 | 0.00 | 96 | 1021.4 |
| 20260831110105 | 64 | 258 | 0.0 | 0.0 | 0.00 | 0.03 | 0.00 | 96 | 1021.5 |
| 20260831105604 | 64 | 258 | 0.0 | 0.0 | 0.00 | 0.03 | 0.00 | 96 | 1021.3 |
| 20260831105104 | 64 | 258 | 0.0 | 0.0 | 0.00 | 0.03 | 0.00 | 95 | 1021.2 |